Back to catalog

STARLINK-3875

AliveCommunicationsVLEO
NORAD 52483·PAYLOAD·🇺🇸 United States

Launched May 6, 2022 from Cape Canaveral Space Force Station

Loading…

Next Passes (next 24 hours)

TLE

FreshSource: CelesTrak SupGP

Epoch: Sep 14, 2026, 21:26 UTC

1 52483C 22049AJ  26257.89354167  .00045185  00000+0  12931-2 0  2571
2 52483  53.1569 269.6083 0001200  95.1169  78.3154 15.35367320    15

Track STARLINK-3875 in real time with AllMySat

Download on the App Store